• In Germany
  • List of Countries
  • For 7 days
  • Water Temperature
  • Satellite Maps
  • Weather Map
  • Weather Widgets
  • user-avatar
    Login

    Hourly Weather Baraki Barak

    Today, 23 June, Friday

    Time Temperature Precipitation Wind Pressure Humidity
    00:00 +23°C° 0 mm 1 mps 598 mmHg 24%
    01:00 +22°C° 0 mm 1 mps 598 mmHg 25%
    02:00 +21°C° 0 mm 1 mps 597 mmHg 25%
    03:00 +21°C° 0 mm 1 mps 597 mmHg 25%
    04:00 +20°C° 0 mm 1 mps 597 mmHg 25%
    05:00 +19°C° 0 mm 2 mps 596 mmHg 19%
    06:00 +21°C° 0 mm 2 mps 597 mmHg 18%
    07:00 +24°C° 0 mm 1 mps 598 mmHg 17%
    08:00 +25°C° 0 mm 1 mps 599 mmHg 16%
    09:00 +27°C° 0 mm 1 mps 599 mmHg 15%
    10:00 +28°C° 0 mm 1 mps 600 mmHg 13%
    11:00 +30°C° 0 mm 1 mps 600 mmHg 11%
    12:00 +31°C° 0 mm 1 mps 600 mmHg 11%
    13:00 +32°C° 0 mm 2 mps 600 mmHg 10%
    14:00 +34°C° 0 mm 2 mps 601 mmHg 9%
    15:00 +34°C° 0 mm 2 mps 600 mmHg 9%
    16:00 +35°C° 0 mm 3 mps 600 mmHg 9%
    17:00 +35°C° 0 mm 3 mps 600 mmHg 9%
    18:00 +33°C° 0 mm 3 mps 600 mmHg 10%
    19:00 +31°C° 0 mm 3 mps 599 mmHg 12%
    20:00 +29°C° 0 mm 2 mps 599 mmHg 14%
    21:00 +28°C° 0 mm 2 mps 599 mmHg 16%
    22:00 +27°C° 0 mm 1 mps 599 mmHg 17%
    23:00 +26°C° 0 mm 1 mps 598 mmHg 19%

    Tomorrow, 24 June, Saturday

    Time Temperature Precipitation Wind Pressure Humidity
    00:00 +25°C° 0 mm 1 mps 598 mmHg 19%
    01:00 +25°C° 0 mm 1 mps 597 mmHg 19%
    02:00 +24°C° 0 mm 1 mps 597 mmHg 19%
    03:00 +23°C° 0 mm 1 mps 597 mmHg 21%
    04:00 +23°C° 0 mm 1 mps 596 mmHg 22%
    05:00 +22°C° 0 mm 1 mps 596 mmHg 23%
    06:00 +24°C° 0 mm 1 mps 597 mmHg 21%
    07:00 +26°C° 0 mm 1 mps 598 mmHg 19%
    08:00 +27°C° 0 mm 1 mps 598 mmHg 17%
    09:00 +29°C° 0 mm 2 mps 599 mmHg 15%
    10:00 +30°C° 0 mm 2 mps 599 mmHg 14%
    11:00 +32°C° 0 mm 2 mps 599 mmHg 12%
    12:00 +34°C° 0 mm 2 mps 599 mmHg 11%
    13:00 +35°C° 0 mm 3 mps 599 mmHg 10%
    14:00 +36°C° 0 mm 3 mps 599 mmHg 10%
    15:00 +36°C° 0 mm 3 mps 599 mmHg 10%
    16:00 +36°C° 0 mm 4 mps 599 mmHg 10%
    17:00 +36°C° 0 mm 4 mps 598 mmHg 10%
    18:00 +34°C° 0 mm 4 mps 598 mmHg 12%
    19:00 +32°C° 0 mm 4 mps 598 mmHg 15%
    20:00 +30°C° 0 mm 4 mps 597 mmHg 18%
    21:00 +28°C° 0 mm 3 mps 597 mmHg 21%
    22:00 +27°C° 0 mm 3 mps 597 mmHg 24%
    23:00 +26°C° 0 mm 2 mps 597 mmHg 27%

    Day after tomorrow, 25 June, Sunday

    Time Temperature Precipitation Wind Pressure Humidity
    00:00 +25°C° 0 mm 2 mps 597 mmHg 30%
    01:00 +25°C° 0 mm 2 mps 597 mmHg 32%
    02:00 +24°C° 0 mm 2 mps 596 mmHg 34%
    03:00 +23°C° 0 mm 2 mps 596 mmHg 35%
    04:00 +23°C° 0 mm 2 mps 596 mmHg 37%
    05:00 +22°C° 0 mm 1 mps 596 mmHg 38%
    06:00 +23°C° 0 mm 2 mps 596 mmHg 35%
    07:00 +25°C° 0 mm 2 mps 597 mmHg 31%
    08:00 +26°C° 0 mm 2 mps 598 mmHg 28%
    09:00 +27°C° 0 mm 2 mps 598 mmHg 27%
    10:00 +28°C° 0 mm 2 mps 598 mmHg 25%
    11:00 +29°C° 0 mm 2 mps 599 mmHg 24%
    12:00 +30°C° 0 mm 2 mps 599 mmHg 23%
    13:00 +31°C° 0 mm 2 mps 599 mmHg 22%
    14:00 +32°C° 0 mm 2 mps 598 mmHg 22%
    15:00 +33°C° 0.1 mm 3 mps 598 mmHg 23%
    16:00 +33°C° 0.1 mm 4 mps 598 mmHg 24%
    17:00 +33°C° 0.1 mm 5 mps 597 mmHg 25%
    18:00 +32°C° 0.3 mm 4 mps 597 mmHg 29%
    19:00 +30°C° 0.3 mm 4 mps 597 mmHg 32%
    20:00 +29°C° 0.3 mm 3 mps 597 mmHg 36%
    21:00 +28°C° 0.1 mm 3 mps 597 mmHg 35%
    22:00 +27°C° 0.1 mm 2 mps 597 mmHg 34%
    23:00 +27°C° 0.1 mm 2 mps 598 mmHg 34%

    26 June, Monday

    Time Temperature Precipitation Wind Pressure Humidity
    00:00 +26°C° 0 mm 2 mps 597 mmHg 34%
    01:00 +25°C° 0 mm 2 mps 597 mmHg 35%
    02:00 +25°C° 0 mm 1 mps 597 mmHg 35%
    03:00 +24°C° 0 mm 1 mps 597 mmHg 36%
    04:00 +24°C° 0 mm 1 mps 597 mmHg 36%
    05:00 +23°C° 0 mm 1 mps 596 mmHg 37%
    06:00 +24°C° 0 mm 2 mps 597 mmHg 35%
    07:00 +25°C° 0 mm 2 mps 598 mmHg 33%
    08:00 +26°C° 0 mm 2 mps 599 mmHg 31%
    09:00 +27°C° 0 mm 2 mps 599 mmHg 30%
    10:00 +28°C° 0 mm 1 mps 599 mmHg 30%
    11:00 +30°C° 0 mm 1 mps 599 mmHg 29%
    12:00 +31°C° 0.1 mm 1 mps 599 mmHg 27%
    13:00 +32°C° 0.1 mm 1 mps 599 mmHg 24%
    14:00 +33°C° 0.1 mm 1 mps 599 mmHg 22%
    15:00 +34°C° 0 mm 2 mps 599 mmHg 21%
    16:00 +34°C° 0 mm 2 mps 599 mmHg 20%
    17:00 +34°C° 0 mm 2 mps 599 mmHg 19%
    18:00 +33°C° 0 mm 3 mps 598 mmHg 21%
    19:00 +31°C° 0 mm 3 mps 598 mmHg 23%
    20:00 +30°C° 0 mm 4 mps 598 mmHg 25%
    21:00 +29°C° 0 mm 4 mps 598 mmHg 26%
    22:00 +28°C° 0 mm 3 mps 598 mmHg 28%
    23:00 +27°C° 0 mm 3 mps 598 mmHg 29%

    27 June, Tuesday

    Time Temperature Precipitation Wind Pressure Humidity
    00:00 +26°C° 0.1 mm 3 mps 598 mmHg 30%
    01:00 +25°C° 0.1 mm 2 mps 597 mmHg 31%
    02:00 +25°C° 0.1 mm 2 mps 597 mmHg 32%
    03:00 +24°C° 0 mm 2 mps 597 mmHg 32%
    04:00 +23°C° 0 mm 2 mps 596 mmHg 33%
    05:00 +23°C° 0 mm 2 mps 596 mmHg 33%
    06:00 +24°C° 0 mm 2 mps 597 mmHg 31%
    07:00 +25°C° 0 mm 2 mps 598 mmHg 29%
    08:00 +26°C° 0 mm 2 mps 598 mmHg 27%
    09:00 +27°C° 0 mm 2 mps 598 mmHg 26%
    10:00 +28°C° 0 mm 2 mps 599 mmHg 25%
    11:00 +29°C° 0 mm 2 mps 599 mmHg 24%
    12:00 +30°C° 0 mm 2 mps 599 mmHg 22%
    13:00 +31°C° 0 mm 2 mps 599 mmHg 21%
    14:00 +32°C° 0 mm 1 mps 599 mmHg 19%
    15:00 +32°C° 0.2 mm 2 mps 598 mmHg 20%
    16:00 +33°C° 0.2 mm 3 mps 598 mmHg 20%
    17:00 +33°C° 0.2 mm 3 mps 598 mmHg 21%
    18:00 +32°C° 0.2 mm 4 mps 598 mmHg 23%
    19:00 +30°C° 0.2 mm 4 mps 598 mmHg 25%
    20:00 +29°C° 0.2 mm 5 mps 598 mmHg 27%
    21:00 +28°C° 0.2 mm 4 mps 597 mmHg 29%
    22:00 +27°C° 0.2 mm 3 mps 597 mmHg 30%
    23:00 +26°C° 0.2 mm 3 mps 597 mmHg 32%

    28 June, Wednesday

    Time Temperature Precipitation Wind Pressure Humidity
    00:00 +25°C° 0 mm 3 mps 597 mmHg 32%
    01:00 +25°C° 0 mm 2 mps 597 mmHg 32%
    02:00 +24°C° 0 mm 2 mps 596 mmHg 32%
    03:00 +23°C° 0 mm 2 mps 596 mmHg 32%
    04:00 +23°C° 0 mm 2 mps 596 mmHg 33%
    05:00 +21°C° 0 mm 2 mps 596 mmHg 33%
    06:00 +23°C° 0 mm 2 mps 597 mmHg 31%
    07:00 +24°C° 0 mm 2 mps 597 mmHg 29%
    08:00 +25°C° 0 mm 2 mps 598 mmHg 26%
    09:00 +26°C° 0 mm 2 mps 598 mmHg 25%
    10:00 +28°C° 0 mm 2 mps 598 mmHg 24%
    11:00 +29°C° 0 mm 2 mps 599 mmHg 23%
    12:00 +30°C° 0 mm 2 mps 599 mmHg 22%
    13:00 +30°C° 0 mm 2 mps 599 mmHg 21%
    14:00 +31°C° 0 mm 1 mps 598 mmHg 19%
    15:00 +31°C° 0.2 mm 2 mps 598 mmHg 21%
    16:00 +30°C° 0.2 mm 3 mps 598 mmHg 23%
    17:00 +30°C° 0.2 mm 3 mps 597 mmHg 25%
    18:00 +29°C° 0.2 mm 3 mps 597 mmHg 27%
    19:00 +28°C° 0.2 mm 3 mps 597 mmHg 29%
    20:00 +27°C° 0.2 mm 3 mps 597 mmHg 31%
    21:00 +26°C° 0.1 mm 3 mps 597 mmHg 33%
    22:00 +26°C° 0.1 mm 2 mps 597 mmHg 35%
    23:00 +25°C° 0.1 mm 1 mps 597 mmHg 37%
    Show more